Wind_Speed
51 51 51 52 51 51 51 50 50 51 51 51 51 50 50 49 48 47 47 47 47 46 46 46 45 45 45 45 45 45 46 46 46 46 46 47 47 48 49 49 50 51 51
51 51 51 51 53 52 52 52 52 52 52 52 52 51 51 50 50 49 48 48 48 48 47 47 46 46 46 46 46 46 47 47 47 47 47 47 47 48 49 50 51 52 52
51 51 53 52 52 53 52 52 53 53 53 53 52 51 51 51 50 50 50 49 49 48 48 47 47 47 47 47 47 47 47 47 48 48 47 47 48 49 50 50 51 52 52
52 53 53 53 53 52 53 53 53 53 53 53 53 53 52 52 52 52 51 51 50 49 49 49 48 48 48 48 48 47 48 48 48 48 48 48 49 50 51 51 51 52 52
52 52 53 53 53 53 52 51 52 53 53 54 54 53 53 52 52 51 51 50 49 49 49 49 48 48 48 49 49 48 49 49 49 49 49 49 50 51 52 52 52 53 53
52 52 53 54 54 54 53 51 51 51 52 53 53 52 52 52 51 51 50 50 49 48 48 48 49 48 49 49 49 50 50 50 50 50 50 51 51 52 52 52 52 53 53
52 53 53 53 53 53 53 52 51 50 50 51 51 52 51 51 51 50 51 51 49 49 49 49 49 49 49 49 50 50 50 50 51 51 51 51 52 52 53 52 52 53 54
50 52 53 53 53 52 52 53 52 50 50 50 51 51 52 51 51 50 51 51 50 50 50 50 50 49 49 49 49 49 50 50 50 50 51 51 52 52 52 52 52 53 55
49 50 51 52 53 53 52 53 53 53 51 50 50 51 51 51 50 50 51 50 50 50 49 50 50 49 49 50 50 50 50 49 49 50 50 51 51 52 51 51 52 53 55
48 49 50 51 52 52 52 53 53 53 52 50 50 51 51 50 50 50 50 50 49 49 49 48 49 49 49 50 50 50 50 50 50 50 51 51 51 51 50 51 52 54 56
46 47 48 50 50 51 51 52 52 52 52 52 51 51 51 50 50 50 50 50 50 50 49 49 50 50 50 50 50 49 49 49 50 50 51 50 50 50 50 51 53 55 57
46 46 47 48 49 50 51 51 51 50 51 51 50 50 50 50 49 49 49 50 50 51 51 50 50 50 50 50 50 49 49 49 50 50 50 50 50 51 51 52 54 55 57
44 45 46 47 47 48 49 49 48 48 48 49 48 48 47 47 48 48 49 50 50 50 50 50 51 50 50 50 49 49 49 49 49 49 49 49 50 50 51 52 53 55 55
43 44 45 45 46 46 46 46 46 46 46 47 47 47 46 46 47 48 48 48 47 48 49 49 49 48 48 48 47 47 48 48 48 48 48 49 50 50 50 51 52 52 52
43 43 44 45 45 44 44 45 45 45 45 45 46 46 47 46 45 44 44 45 45 46 46 46 45 45 46 46 45 46 47 47 47 47 47 48 48 48 49 50 50 50 50
41 42 42 43 43 42 42 43 43 43 43 43 43 43 43 43 43 43 43 43 43 43 44 44 44 43 43 43 44 45 45 45 46 46 46 46 47 47 47 47 47 48 48
38 38 39 40 40 40 41 41 42 42 42 41 41 41 41 41 41 42 42 41 41 41 41 42 42 42 42 42 42 43 44 44 45 44 44 44 44 44 44 45 46 46 46
37 36 36 37 38 38 38 39 39 39 40 41 41 40 40 41 41 41 41 40 40 40 40 40 40 41 41 41 42 42 42 42 42 42 41 42 42 43 43 44 45 44 44
36 36 35 35 35 36 36 37 38 38 38 39 40 39 39 40 39 39 39 39 38 39 39 39 39 39 40 41 41 40 40 40 40 40 40 40 41 41 42 42 42 42 42
35 34 34 35 34 35 35 35 37 37 37 37 38 38 38 38 38 39 38 37 37 38 38 38 37 38 39 39 39 39 39 39 39 39 38 38 39 40 40 41 40 41 41
34 34 34 34 34 34 34 34 35 35 36 36 37 37 37 37 36 37 36 36 36 36 36 36 36 36 37 37 37 37 37 37 37 37 37 37 38 38 39 39 39 39 39
33 33 33 33 33 33 33 33 34 34 34 35 35 35 36 36 36 36 36 35 35 35 34 34 34 34 35 35 35 34 34 35 35 35 36 36 37 37 37 37 37 37 37
32 31 31 31 31 31 31 32 32 32 32 32 32 33 33 34 34 34 34 34 34 34 34 33 32 33 33 33 32 32 33 33 33 34 34 35 35 36 36 36 36 36 35
30 30 30 30 30 30 30 30 29 29 29 30 30 30 31 32 32 32 31 31 31 32 31 31 31 32 32 31 31 32 32 32 32 32 33 33 34 34 34 34 34 33 32
28 28 28 29 29 28 28 28 28 28 29 29 29 29 29 30 30 29 29 29 29 29 29 30 30 30 30 29 30 30 30 30 30 30 31 31 32 32 32 31 30 30 29
25 25 26 26 26 26 27 27 27 27 27 27 27 27 27 27 27 27 27 27 27 27 28 28 28 28 28 28 28 28 28 28 28 29 29 29 30 30 29 28 27 26 26
Wind_Direction
249 249 250 251 252 253 254 254 255 257 258 259 261 261 262 264 266 267 269 271 272 274 275 277 280 281 283 285 286 288 290 291 292 293 293 293 294 295 296 297 298 299 300
250 250 250 251 252 253 254 255 255 256 258 259 261 262 264 265 266 268 269 270 272 273 275 277 279 281 283 284 286 288 289 290 291 292 293 293 294 295 296 297 298 299 300
252 251 250 250 251 252 253 254 255 257 258 259 261 263 264 265 266 267 269 270 271 273 275 277 278 280 282 283 285 286 288 289 290 291 292 293 293 294 295 296 298 300 301
253 252 252 252 252 253 253 254 254 256 257 259 260 262 263 264 265 267 268 270 271 272 274 276 278 280 281 283 284 285 287 288 289 290 291 293 294 295 296 297 298 300 300
252 253 252 253 253 254 254 255 255 256 257 259 260 261 262 264 265 267 268 270 271 273 274 276 277 278 280 282 284 285 286 287 288 289 290 292 294 295 296 297 298 299 300
252 252 252 253 254 254 254 255 256 257 258 259 260 260 262 264 265 267 268 270 271 273 274 276 277 279 281 282 283 284 286 287 287 288 290 293 294 294 296 297 298 299 300
253 252 253 254 255 255 255 256 257 258 258 258 259 260 261 263 264 266 267 269 271 273 274 275 277 279 281 282 283 284 286 287 288 289 290 293 294 294 296 297 298 299 301
254 254 254 255 255 255 256 256 257 258 259 259 259 259 261 263 264 266 267 269 271 273 274 276 278 279 280 281 282 284 286 287 289 289 291 293 293 294 296 297 298 299 301
257 257 257 257 257 257 257 257 257 259 259 260 260 260 261 262 264 266 268 270 271 273 274 276 277 279 280 281 282 283 285 287 288 290 291 293 293 294 296 297 299 300 302
259 258 258 259 259 258 258 258 258 258 258 259 260 260 261 263 264 266 268 270 272 274 275 276 278 279 280 281 282 283 285 287 288 289 291 292 293 295 296 297 299 300 302
259 258 258 259 259 258 257 257 258 258 259 260 260 260 261 263 265 266 269 271 272 273 274 276 277 279 279 280 281 283 285 286 287 289 290 291 293 294 295 297 299 300 302
260 259 259 260 259 258 257 257 257 258 260 261 261 261 261 263 264 267 269 270 272 273 274 275 277 278 278 279 281 283 284 286 287 288 290 291 293 294 295 297 299 301 302
260 260 260 260 260 259 259 258 257 257 259 261 262 262 263 264 265 267 269 271 272 273 274 274 275 276 277 279 281 282 283 285 287 289 290 291 293 294 296 298 300 301 302
261 261 260 260 260 261 260 259 258 258 259 260 262 263 264 265 266 268 269 271 272 273 274 275 275 275 277 279 280 281 283 285 287 288 290 291 293 295 297 298 299 301 302
262 262 261 261 261 261 260 259 258 257 258 260 262 263 265 265 267 268 269 270 271 273 274 274 275 276 278 279 280 282 284 286 287 288 289 291 292 294 296 297 299 301 303
261 262 262 262 261 260 259 258 257 257 257 258 261 263 265 265 267 269 270 271 271 272 272 273 275 277 280 281 282 283 284 285 287 288 289 290 292 294 296 298 300 302 304
263 262 261 261 259 259 258 258 257 257 257 258 260 263 265 266 267 269 270 271 272 273 273 274 275 277 279 281 283 284 284 285 287 288 289 290 292 294 296 298 301 303 304
264 262 261 261 260 260 258 258 257 257 258 258 260 263 265 266 266 267 268 270 271 272 274 275 277 278 279 280 282 284 284 285 287 289 289 291 293 295 297 299 301 303 305
263 262 261 261 260 260 258 257 258 258 259 259 261 263 264 265 265 266 267 269 271 272 273 276 277 277 278 280 281 284 285 286 288 289 289 291 294 296 298 300 301 303 304
262 262 262 261 260 259 257 257 257 258 259 259 260 262 262 262 263 264 266 268 270 272 273 275 276 277 280 281 282 284 285 287 289 288 290 292 295 297 299 300 301 303 305
262 262 262 261 259 258 257 257 257 258 259 259 260 261 260 261 264 265 267 268 270 272 273 275 277 280 280 281 283 284 286 288 289 289 291 293 295 297 299 300 302 303 305
261 262 262 261 259 258 257 257 257 257 258 259 259 259 260 262 264 265 266 268 270 272 275 277 278 281 282 283 284 286 288 289 290 291 292 293 295 297 299 300 302 303 304
261 260 259 258 257 257 256 256 256 256 257 258 259 260 261 261 263 265 267 269 271 273 275 277 279 282 284 285 286 288 289 290 290 292 293 294 296 297 299 300 301 303 304
260 259 258 257 256 256 255 254 255 256 257 258 260 262 262 262 263 265 267 269 273 275 275 278 281 283 284 286 287 289 290 290 292 293 293 295 297 298 299 299 301 302 304
260 259 257 256 255 255 255 255 255 257 258 259 259 260 262 263 263 265 268 272 274 275 277 279 281 282 284 285 287 288 288 290 293 294 295 297 298 300 300 301 302 303 304
260 258 256 256 255 255 255 255 255 256 257 258 258 259 261 262 262 264 268 272 274 275 277 279 280 282 284 286 287 287 288 291 293 295 297 299 300 301 301 302 303 304 306
Height
5669 5671 5674 5676 5678 5680 5681 5683 5685 5686 5687 5688 5689 5689 5689 5690 5690 5690 5690 5689 5688 5687 5686 5684 5683 5680 5678 5676 5673 5670 5667 5664 5661 5658 5654 5649 5645 5640 5636 5631 5626 5621 5616
5655 5657 5660 5662 5664 5666 5668 5670 5671 5673 5674 5675 5676 5677 5677 5678 5678 5678 5678 5677 5676 5675 5674 5673 5671 5669 5667 5664 5662 5659 5656 5652 5649 5646 5642 5638 5633 5629 5624 5619 5614 5609 5603
5641 5643 5645 5648 5650 5652 5654 5656 5658 5659 5661 5662 5663 5664 5665 5665 5665 5665 5665 5665 5664 5663 5662 5661 5659 5657 5655 5653 5650 5647 5644 5641 5637 5634 5630 5626 5621 5617 5612 5607 5602 5596 5590
5627 5629 5631 5633 5636 5638 5640 5642 5643 5645 5647 5648 5650 5651 5651 5652 5652 5652 5652 5652 5652 5651 5650 5648 5647 5645 5643 5640 5638 5635 5632 5628 5625 5621 5618 5614 5609 5605 5600 5595 5589 5584 5578
5613 5615 5617 5619 5621 5623 5626 5628 5630 5631 5633 5635 5636 5637 5638 5639 5639 5640 5639 5639 5639 5638 5637 5636 5634 5632 5630 5628 5625 5622 5619 5616 5613 5609 5606 5601 5597 5592 5588 5582 5577 5571 5565
5598 5601 5603 5605 5607 5609 5612 5613 5616 5617 5619 5620 5622 5623 5624 5625 5626 5626 5626 5626 5626 5625 5624 5623 5621 5619 5617 5615 5612 5610 5607 5604 5600 5597 5593 5589 5584 5579 5575 5569 5564 5558 5553
5584 5586 5588 5590 5593 5595 5597 5600 5602 5603 5605 5606 5608 5609 5611 5612 5612 5613 5612 5612 5612 5612 5611 5610 5608 5606 5604 5602 5599 5597 5594 5591 5588 5584 5580 5576 5571 5567 5562 5557 5551 5544 5539
5570 5572 5574 5576 5578 5580 5583 5585 5588 5589 5591 5593 5594 5596 5597 5598 5599 5599 5598 5598 5598 5598 5597 5596 5594 5593 5591 5589 5586 5583 5581 5578 5574 5571 5567 5563 5558 5553 5548 5543 5537 5532 5525
5556 5557 5559 5561 5563 5566 5568 5571 5573 5575 5577 5579 5580 5582 5583 5584 5585 5585 5584 5583 5584 5584 5583 5582 5581 5579 5578 5575 5573 5570 5568 5565 5561 5557 5553 5549 5545 5540 5535 5530 5524 5518 5512
5542 5543 5545 5547 5549 5551 5554 5556 5558 5560 5562 5564 5566 5567 5568 5569 5570 5570 5569 5569 5569 5569 5569 5568 5566 5565 5563 5561 5559 5557 5554 5552 5548 5544 5540 5536 5532 5527 5522 5517 5511 5505 5498
5528 5530 5531 5533 5535 5537 5539 5541 5543 5545 5548 5550 5551 5553 5554 5554 5555 5555 5555 5555 5555 5554 5554 5553 5552 5551 5549 5547 5545 5543 5541 5538 5534 5531 5527 5523 5519 5514 5509 5503 5497 5491 5484
5515 5516 5518 5519 5521 5522 5524 5526 5528 5531 5533 5535 5536 5538 5539 5540 5540 5540 5540 5540 5540 5539 5539 5539 5538 5536 5534 5532 5531 5529 5527 5524 5521 5517 5514 5510 5506 5501 5495 5490 5484 5477 5471
5501 5502 5504 5505 5507 5508 5510 5511 5513 5516 5518 5520 5522 5523 5525 5525 5526 5526 5525 5525 5524 5524 5524 5523 5522 5521 5520 5518 5516 5514 5512 5510 5507 5504 5500 5496 5492 5487 5482 5476 5470 5464 5457
5488 5489 5490 5492 5493 5494 5495 5497 5499 5502 5504 5506 5508 5509 5511 5511 5511 5511 5511 5510 5510 5509 5509 5508 5508 5507 5506 5504 5502 5500 5498 5496 5494 5490 5487 5483 5479 5474 5468 5463 5457 5450 5444
5474 5475 5477 5478 5479 5481 5482 5484 5486 5488 5490 5493 5495 5496 5497 5498 5498 5498 5498 5497 5497 5496 5495 5495 5494 5494 5493 5491 5489 5487 5485 5483 5480 5477 5473 5470 5465 5460 5455 5450 5444 5438 5431
5461 5462 5463 5465 5466 5467 5469 5471 5472 5475 5477 5479 5481 5482 5483 5484 5484 5485 5485 5485 5484 5483 5483 5482 5482 5481 5480 5478 5476 5474 5472 5470 5467 5464 5460 5456 5452 5447 5442 5437 5431 5426 5420
5449 5450 5451 5452 5453 5454 5456 5458 5460 5463 5464 5466 5468 5470 5471 5471 5472 5472 5472 5472 5471 5471 5471 5470 5470 5469 5467 5466 5464 5462 5460 5457 5454 5450 5447 5443 5439 5435 5430 5425 5420 5414 5408
5437 5438 5438 5439 5441 5442 5443 5445 5448 5450 5452 5454 5456 5458 5459 5459 5460 5460 5460 5460 5459 5459 5459 5458 5458 5456 5455 5453 5451 5449 5447 5444 5441 5438 5435 5431 5427 5423 5419 5414 5409 5403 5397
5425 5426 5427 5428 5429 5430 5432 5434 5436 5438 5441 5443 5444 5445 5446 5447 5447 5448 5448 5449 5449 5448 5447 5447 5446 5444 5443 5441 5439 5437 5435 5432 5429 5426 5423 5420 5416 5412 5407 5403 5398 5392 5387
5414 5415 5416 5417 5418 5419 5421 5423 5425 5427 5429 5431 5432 5434 5434 5435 5436 5437 5437 5437 5437 5436 5436 5435 5434 5432 5431 5429 5427 5425 5423 5420 5418 5415 5412 5409 5405 5401 5397 5392 5387 5382 5377
5402 5403 5404 5405 5406 5408 5410 5412 5414 5416 5418 5420 5421 5422 5423 5424 5425 5425 5426 5426 5426 5425 5424 5423 5422 5421 5419 5418 5416 5414 5411 5409 5406 5404 5401 5398 5394 5390 5386 5381 5377 5372 5367
5391 5392 5393 5394 5396 5398 5400 5402 5403 5405 5407 5408 5410 5411 5412 5413 5414 5415 5415 5415 5415 5414 5414 5413 5411 5410 5408 5407 5405 5403 5400 5398 5395 5393 5390 5387 5384 5380 5376 5371 5367 5362 5357
5379 5381 5382 5384 5385 5387 5389 5391 5393 5394 5396 5397 5399 5400 5401 5402 5403 5404 5404 5404 5404 5403 5403 5402 5401 5399 5398 5396 5394 5393 5390 5388 5385 5382 5380 5376 5373 5369 5366 5361 5357 5353 5349
5369 5371 5372 5374 5375 5377 5379 5381 5383 5384 5386 5387 5388 5390 5391 5392 5393 5393 5394 5394 5393 5393 5392 5391 5390 5389 5388 5386 5385 5383 5380 5378 5375 5373 5370 5366 5363 5359 5356 5352 5348 5344 5340
5360 5361 5362 5364 5366 5368 5369 5371 5373 5375 5376 5377 5379 5380 5381 5382 5383 5383 5384 5384 5384 5383 5383 5382 5381 5380 5378 5377 5375 5373 5371 5369 5366 5363 5360 5357 5354 5350 5347 5343 5339 5336 5332
5351 5352 5354 5355 5356 5358 5360 5361 5363 5365 5367 5368 5369 5371 5372 5372 5373 5374 5375 5375 5375 5374 5373 5373 5372 5371 5369 5368 5366 5364 5362 5360 5357 5355 5352 5349 5345 5342 5338 5335 5332 5328 5325